Thompson, UT

8:51 PM MST on January 18, 2017 (GMT -0700)
Canyonlands

Weather History for KCNY - March, 2014

Change the Weather History Date:

Saturday, March 22, 2014

  Actual Average Record
Temperature  
Mean Temperature 51 °F 46 °F  
Max Temperature 61 °F 61 °F 81 °F (1990)
Min Temperature 41 °F 32 °F 22 °F (1933)
Degree Days  
Heating Degree Days 14 19  
Month to date heating degree days 414 479  
Since 1 July heating degree days 5162 4888  
Cooling Degree Days 0 0  
Month to date cooling degree days 0 0  
Year to date cooling degree days 0 0  
Growing Degree Days 2 (Base 50)    
Moisture  
Dew Point 18 °F    
Average Humidity 27    
Maximum Humidity 45    
Minimum Humidity 9    
Precipitation  
Precipitation 0.00 in 0.02 in 0.56 in (1954)
Month to date precipitation 0.31 0.53  
Year to date precipitation 0.64 1.69  
Sea Level Pressure  
Sea Level Pressure 29.92 in    
Wind  
Wind Speed 11 mph (WNW)    
Max Wind Speed 29 mph    
Max Gust Speed 35 mph    
Visibility 10 miles    
Events      
T = Trace of Precipitation, MM = Missing Value Source: NWS Daily Summary

Daily Weather History Graph

Daily Weather History Graph

Search for Another Location

Airport or City:

Trip Planner

Search our weather history database for the weather conditions in past years. The results will help you decide how hot, cold, wet, or windy it might be!

Date:

Astronomy

Mar. 22, 2014 Rise Set
Actual Time 7:19 AM MDT 7:32 PM MDT
Civil Twilight 6:52 AM MDT 7:59 PM MDT
Nautical Twilight 6:21 AM MDT 8:30 PM MDT
Astronomical Twilight 5:50 AM MDT 9:02 PM MDT
Moon 12:52 AM MDT (3/22) 11:08 AM MDT (3/22)
Length of Visible Light 13h 06m
Length of Day
12h 13m
Waning Gibbous, 65% of the Moon is Illuminated
Mar 22
Waning Gibbous
Mar 23
Last Quarter
Mar 30
New
Apr 7
First Quarter
Apr 15
Full

Hourly Weather History & Observations

Time (MDT) Temp. Windchill Dew Point Humidity Pressure Visibility Wind Dir Wind Speed Gust Speed Precip Events Conditions
12:53 AM 46.9 °F - 15.1 °F 28% 29.78 in 10.0 mi Calm Calm - N/A   Clear
1:53 AM 46.9 °F - 17.1 °F 30% 29.77 in 10.0 mi Calm Calm - N/A   Clear
2:53 AM 46.0 °F 44.8 °F 18.0 °F 33% 29.77 in 10.0 mi West 3.5 mph - N/A   Scattered Clouds
3:53 AM 45.0 °F - 19.9 °F 37% 29.75 in 10.0 mi Calm Calm - N/A   Overcast
4:53 AM 46.0 °F - 19.9 °F 35% 29.77 in 10.0 mi Calm Calm - N/A   Overcast
5:53 AM 44.1 °F 42.5 °F 19.9 °F 38% 29.79 in 10.0 mi West 3.5 mph - N/A   Scattered Clouds
6:53 AM 45.0 °F - 19.9 °F 37% 29.82 in 10.0 mi Calm Calm - N/A   Clear
7:53 AM 50.0 °F - 24.1 °F 36% 29.86 in 10.0 mi WNW 20.7 mph - N/A   Scattered Clouds
8:53 AM 51.1 °F - 25.0 °F 36% 29.90 in 10.0 mi NW 17.3 mph - N/A   Overcast
9:53 AM 52.0 °F - 24.1 °F 34% 29.93 in 10.0 mi West 12.7 mph - N/A   Overcast
10:53 AM 53.1 °F - 24.1 °F 32% 29.95 in 10.0 mi WNW 15.0 mph - N/A   Partly Cloudy
11:53 AM 55.0 °F - 21.9 °F 28% 29.96 in 10.0 mi West 19.6 mph 25.3 mph N/A   Clear
12:53 PM 57.9 °F - 18.0 °F 21% 29.95 in 10.0 mi NW 20.7 mph 27.6 mph N/A   Clear
1:53 PM 57.0 °F - 16.0 °F 20% 29.95 in 10.0 mi NW 17.3 mph 27.6 mph N/A   Partly Cloudy
2:53 PM 61.0 °F - 7.0 °F 12% 29.92 in 10.0 mi West 21.9 mph 26.5 mph N/A   Clear
3:53 PM 61.0 °F - 6.1 °F 11% 29.93 in 10.0 mi West 15.0 mph 23.0 mph N/A   Clear
4:53 PM 60.1 °F - 10.0 °F 14% 29.93 in 10.0 mi West 16.1 mph 24.2 mph N/A   Partly Cloudy
5:53 PM 60.1 °F - 1.9 °F 10% 29.94 in 10.0 mi NW 11.5 mph - N/A   Clear
6:53 PM 57.9 °F - -0.0 °F 10% 29.97 in 10.0 mi North 16.1 mph 25.3 mph N/A   Clear
7:10 PM 53.1 °F - 25.0 °F 34% 30.05 in 10.0 mi NE 18.4 mph 25.3 mph N/A   Clear
7:53 PM 50.0 °F - 25.0 °F 38% 30.00 in 10.0 mi ENE 10.4 mph - N/A   Clear
8:53 PM 46.9 °F - 26.1 °F 44% 30.04 in 10.0 mi NE 12.7 mph - N/A   Clear
9:53 PM 46.0 °F 43.9 °F 27.0 °F 47% 30.06 in 10.0 mi SSE 4.6 mph - N/A   Clear
10:53 PM 46.9 °F - 26.1 °F 44% 30.08 in 10.0 mi ESE 4.6 mph - N/A   Clear
11:53 PM 44.1 °F 40.8 °F 25.0 °F 47% 30.10 in 10.0 mi SSW 5.8 mph - N/A   Clear